Airfield :
LOGIN :

Register | Disclaimer

   EN    FR    IT 

 










Legend :    VFR   Marginal VFR   IFR   Intensive IFR   Very Intensive IFR
Visi :
Ceiling :
>= 8 km
>= 3000ft
5 to 8 km
1000 to 3000 ft
1500m to 5 km
500 to 1000 ft
800 to 1500m
200 to 500 ft
< 800m
< 200 ft
Symbols :   Thunderstorms  Fog  Heavy snow  Heavy precipitations  Wind > 20 kt
SIGMETs :     Misc.  Thunderstorms  Icing  Turbulence  Mountain Waves  Volcanic Ashes






- Airport Elevation : 1470 ft


LSMD - Dubendorf Military

CURRENT METAR :
  • 200650Z VRB02KT 9999 OVC025 04/02 Q1015 RMK BLU

EXPIRED METARs :
  • 200620Z VRB02KT 9999 OVC026 04/02 Q1015 RMK BLU
  • 200550Z VRB01KT 9999 FEW010 OVC025 04/02 Q1015 RMK BLU
  • 200520Z AUTO 05004KT 9999NDV OVC028 04/02 Q1015 RMK
  • 200450Z AUTO 06005KT 020V080 9999NDV OVC026 04/02 Q1015 RMK
  • 200420Z AUTO 05005KT 9999NDV OVC023 04/02 Q1015 RMK

Expired Forecast.



MET'MAP, your aeronautical weather chart ! - Copyright ORBIFLY December 2007 - Disclaimer

ORBIFLY MET'MAP TEAM :

Programming & Development : Alexandra Zaïnal
Concept & Development : Baudouin d'Aumeries
Co-Development & Prog : Marc-Olivier Méhu
Technical & hardware support : Manuel Goepfert

Contact : metmap@orbifly.com




SOURCES & CREDITS :

   NOAA